FLOCK 3P-21 (41959 NORAD) Tracking and Keplerian Element Data

This shows tracking and keplerian element data for the satellite.

Feedback or suggestion? Click here.




ElementValue
Catalog41959
NameFLOCK 3P-21
Epoch Orbit5535
Epoch Day46.11924028
Epoch Year2018
RAAN111.5789
Inclination97.4659
Eccentricity0.0010186
Argument of Perigee67.124
Mean Anonmoly293.1071
Mean Motion15.23721
Decay Rate2.61E-05
L11 41959U 17008M 18046.11924028 .00002610 00000-0 11153-3 0 9993
L22 41959 97.4659 111.5789 0010186 67.1240 293.1071 15.23721000 55350

Live tracking and technical data element details for FLOCK 3P-21 (NORAD 41959). FLOCK 3P-21 can be tracked NOW for your location showing map with azimuth and elevation plus other details from your city location.

Track the satellite on the map from your city or location and see movement details for azimuth, elevation, latitude, longitude, range, height, and movement on the map or in text.







IsCatalogInMostPopularTable: catalog: 41959, numindb: 103
Update: records affected: 1



GetName: 41959 FLOCK 3P-21

Hit Count: updated at: Tue, 25 Sep 2018 14:44:28 GMT